Total_Precipitation_Accumulation
0.04 0.12 0.25 0.51 1.38 1.72 1.47 0.78 0.53 0.41 0.40 0.49 0.48 0.45 0.57 0.79 1.02 1.48 0.93 0.37 0.15 0.09 0.11 0.20 0.29 0.30 0.30 0.30 0.30 0.33 0.33 0.33 0.33 0.34 0.34 0.32 0.36 0.42 0.46 0.51 0.53 0.57 0.59 0.54 0.51 0.49 0.47 0.44 0.39
0.08 0.17 0.33 0.73 1.64 2.07 1.54 0.74 0.45 0.32 0.40 0.53 0.62 0.58 0.50 0.55 0.40 0.36 0.48 0.51 0.18 0.09 0.08 0.12 0.21 0.26 0.26 0.28 0.31 0.32 0.33 0.33 0.33 0.32 0.32 0.32 0.36 0.43 0.50 0.52 0.51 0.51 0.48 0.43 0.41 0.38 0.38 0.36 0.35
0.11 0.18 0.40 0.85 1.23 1.35 1.11 0.60 0.35 0.33 0.39 0.56 0.62 0.48 0.44 0.56 0.40 0.32 0.32 0.32 0.18 0.12 0.10 0.13 0.19 0.22 0.24 0.26 0.33 0.33 0.33 0.33 0.34 0.32 0.34 0.37 0.38 0.42 0.47 0.50 0.51 0.48 0.43 0.39 0.38 0.33 0.30 0.32 0.34
0.10 0.19 0.41 0.63 0.63 0.55 0.47 0.37 0.32 0.34 0.43 0.47 0.54 0.52 0.42 0.51 0.39 0.30 0.31 0.27 0.22 0.18 0.14 0.18 0.22 0.22 0.24 0.25 0.30 0.31 0.29 0.30 0.31 0.30 0.32 0.37 0.36 0.39 0.46 0.47 0.46 0.45 0.41 0.36 0.37 0.33 0.30 0.30 0.33
0.09 0.24 0.46 0.50 0.38 0.37 0.38 0.36 0.37 0.41 0.44 0.58 0.70 0.71 0.69 0.56 0.41 0.48 0.57 0.48 0.35 0.29 0.24 0.26 0.29 0.28 0.26 0.27 0.29 0.32 0.29 0.30 0.30 0.31 0.32 0.36 0.36 0.40 0.43 0.41 0.39 0.37 0.35 0.31 0.35 0.39 0.38 0.40 0.44
0.11 0.28 0.34 0.33 0.28 0.31 0.37 0.37 0.36 0.41 0.52 0.76 0.81 0.73 0.77 0.71 0.57 0.62 0.67 0.83 0.68 0.40 0.31 0.31 0.38 0.36 0.31 0.31 0.34 0.35 0.31 0.32 0.32 0.32 0.31 0.33 0.36 0.40 0.38 0.38 0.41 0.37 0.35 0.34 0.37 0.38 0.44 0.50 0.50
0.14 0.30 0.26 0.23 0.21 0.24 0.26 0.34 0.44 0.47 0.57 0.74 0.68 0.65 0.87 0.98 0.79 0.73 0.74 0.81 0.70 0.47 0.44 0.40 0.37 0.35 0.34 0.38 0.42 0.40 0.35 0.36 0.35 0.33 0.31 0.31 0.35 0.40 0.39 0.40 0.45 0.42 0.39 0.39 0.42 0.35 0.36 0.40 0.45
0.08 0.15 0.17 0.17 0.15 0.19 0.18 0.23 0.38 0.53 0.58 0.58 0.62 0.82 1.16 1.08 0.71 0.69 0.77 0.82 0.74 0.65 0.60 0.59 0.54 0.48 0.41 0.40 0.45 0.47 0.44 0.43 0.40 0.38 0.38 0.43 0.49 0.49 0.47 0.43 0.48 0.47 0.45 0.50 0.51 0.44 0.42 0.48 0.55
0.04 0.09 0.12 0.11 0.10 0.16 0.17 0.22 0.32 0.47 0.50 0.58 0.76 0.84 0.90 0.76 0.60 0.75 0.92 1.07 1.13 0.94 0.82 0.73 0.63 0.57 0.53 0.43 0.43 0.50 0.52 0.52 0.54 0.56 0.57 0.72 0.91 0.88 0.90 0.76 0.79 0.78 0.74 0.77 0.79 0.75 0.68 0.66 0.62
0.05 0.07 0.08 0.06 0.07 0.13 0.14 0.23 0.38 0.53 0.63 0.86 1.18 1.23 0.97 0.81 0.75 0.85 1.10 1.21 1.45 1.20 0.91 0.84 0.66 0.61 0.53 0.45 0.56 0.74 0.72 0.77 0.83 0.94 0.98 1.22 1.42 1.42 1.13 1.24 1.33 1.30 1.31 1.20 1.20 1.38 1.18 0.94 0.89
0.03 0.03 0.02 0.03 0.04 0.06 0.12 0.19 0.29 0.46 0.82 1.29 1.37 1.20 0.97 1.05 1.07 1.07 1.36 1.44 1.37 1.21 1.20 1.13 0.90 0.81 0.77 0.84 0.78 0.91 1.05 1.22 1.18 1.14 1.28 1.58 1.46 1.32 1.22 1.31 1.60 1.79 1.86 1.77 1.77 1.90 1.62 1.56 1.76
0.02 0.01 0.01 0.03 0.04 0.06 0.07 0.10 0.21 0.44 0.91 1.06 1.02 0.96 0.93 1.13 1.18 1.27 1.58 1.63 1.65 1.52 1.76 1.82 1.49 1.42 1.30 1.14 1.08 1.04 1.07 1.27 1.41 1.60 1.62 1.76 1.84 1.75 1.61 1.67 1.88 2.04 2.19 2.55 2.44 2.33 2.20 2.15 2.03
0.02 0.01 0.01 0.02 0.04 0.08 0.06 0.12 0.29 0.62 0.82 0.70 0.60 0.83 0.90 1.23 1.55 1.73 1.96 1.81 2.05 2.14 2.37 2.54 2.10 1.99 1.86 1.84 1.75 1.50 1.55 1.65 1.73 1.91 2.05 2.11 2.25 2.26 2.22 2.16 2.11 1.97 2.06 2.41 2.66 2.53 2.56 2.50 2.35
0.02 0.02 0.02 0.03 0.04 0.06 0.11 0.22 0.39 0.67 0.63 0.57 0.72 1.13 1.33 1.31 1.59 1.97 2.11 2.19 2.51 2.68 2.79 2.92 2.80 2.80 2.62 2.39 2.41 2.39 2.05 2.03 2.02 2.06 2.00 2.19 2.40 2.66 2.78 2.68 2.54 2.23 2.15 2.22 2.50 2.59 2.78 2.73 2.55
0.02 0.04 0.07 0.08 0.09 0.08 0.14 0.44 0.57 0.68 0.58 0.60 0.84 1.19 1.53 1.45 1.60 1.89 2.09 2.57 3.27 3.60 3.47 3.50 3.49 3.72 3.55 3.12 2.82 2.56 2.37 2.34 2.43 2.40 2.27 2.39 2.61 2.84 2.82 2.64 2.32 2.11 2.13 2.27 2.23 2.24 2.53 2.36 2.22
0.03 0.07 0.20 0.20 0.14 0.12 0.21 0.73 0.82 0.72 0.85 0.93 1.10 1.28 1.55 1.58 1.62 1.84 2.31 3.08 3.93 4.43 4.33 4.13 3.74 4.07 4.04 3.69 3.43 3.11 2.85 2.87 2.81 2.53 2.41 2.37 2.51 2.44 2.51 2.20 1.88 1.97 2.14 2.22 2.29 2.18 2.28 2.30 2.38
0.06 0.11 0.19 0.25 0.18 0.15 0.27 0.89 0.92 0.68 0.96 1.21 1.12 1.26 1.47 1.64 1.77 1.89 2.45 3.29 4.12 4.87 5.06 5.02 4.91 4.59 4.28 4.11 3.95 3.76 3.55 3.22 2.87 2.68 2.54 2.26 2.04 1.90 2.04 1.85 1.79 1.84 2.01 2.04 1.90 2.15 2.34 2.32 2.35
0.08 0.12 0.18 0.25 0.19 0.19 0.32 0.67 0.76 0.78 0.95 1.12 1.11 1.12 1.21 1.47 1.88 2.00 2.32 3.05 3.97 4.83 5.37 5.54 5.56 5.16 4.62 4.17 3.78 3.71 3.50 3.22 2.95 2.70 2.48 2.10 1.88 1.71 1.89 1.79 1.71 1.76 1.89 1.96 2.08 2.29 2.38 2.14 2.07
0.07 0.10 0.19 0.26 0.20 0.22 0.39 0.57 0.70 0.82 1.06 1.18 1.21 1.15 1.18 1.47 1.88 2.11 2.41 2.90 3.68 4.41 5.09 5.21 5.43 4.91 4.26 3.69 3.27 3.17 2.98 2.67 2.58 2.47 2.29 2.14 1.92 1.79 1.93 1.79 1.81 1.69 1.73 1.74 1.84 1.99 2.06 1.78 1.93
0.09 0.13 0.21 0.24 0.17 0.20 0.39 0.67 0.85 0.94 0.93 0.99 1.02 1.07 1.18 1.54 1.98 2.35 2.89 3.27 3.28 3.80 4.51 4.57 4.26 4.01 3.54 3.13 2.94 2.77 2.70 2.40 2.23 2.11 2.09 1.90 1.75 1.71 1.69 1.75 1.64 1.59 1.66 1.67 1.71 1.87 1.85 1.64 1.84
0.12 0.14 0.19 0.18 0.17 0.25 0.45 0.84 1.14 1.07 0.81 0.73 0.79 0.87 1.01 1.36 1.86 2.30 2.71 3.14 3.10 3.46 3.56 3.19 3.03 3.08 2.98 2.80 2.68 2.57 2.53 2.33 2.08 1.89 1.87 1.73 1.53 1.50 1.46 1.46 1.51 1.58 1.43 1.53 1.64 1.81 1.93 1.79 1.70
0.08 0.08 0.07 0.08 0.15 0.31 0.45 1.02 1.43 1.23 0.93 0.76 0.79 0.96 1.02 1.13 1.33 1.61 1.95 2.37 2.56 2.64 2.57 2.52 2.48 2.50 2.67 2.67 2.43 2.24 1.94 1.81 1.74 1.62 1.67 1.68 1.47 1.38 1.33 1.32 1.45 1.50 1.45 1.61 1.40 1.53 1.79 1.93 1.75
0.05 0.04 0.05 0.09 0.13 0.28 0.49 0.85 1.27 1.25 1.20 1.04 0.90 0.95 0.90 0.94 0.99 1.14 1.26 1.46 1.74 2.00 2.06 2.04 2.28 2.37 2.39 2.36 2.30 2.28 2.02 1.82 1.75 1.86 2.05 1.95 1.64 1.37 1.21 1.27 1.39 1.45 1.47 1.55 1.53 1.61 1.58 1.64 1.65
0.04 0.05 0.12 0.25 0.38 0.70 0.70 0.75 1.12 1.08 1.04 1.03 0.88 0.74 0.70 0.71 0.76 0.94 0.99 1.04 1.17 1.34 1.46 1.57 1.82 2.02 2.08 2.04 2.04 2.08 2.07 2.00 1.80 1.75 1.79 1.70 1.54 1.37 1.22 1.24 1.41 1.44 1.46 1.48 1.51 1.50 1.47 1.53 1.60
0.05 0.09 0.32 0.69 1.01 1.19 0.75 0.72 0.94 0.82 0.83 0.90 0.72 0.50 0.46 0.54 0.56 0.67 0.73 0.82 0.93 0.97 1.07 1.25 1.45 1.59 1.70 1.78 1.83 1.89 2.06 1.97 1.73 1.53 1.55 1.50 1.34 1.24 1.22 1.22 1.45 1.54 1.52 1.51 1.57 1.55 1.53 1.62 1.68
0.06 0.07 0.19 0.35 0.50 0.71 0.77 1.13 1.07 0.68 0.64 0.57 0.41 0.32 0.30 0.45 0.48 0.46 0.50 0.57 0.72 0.78 0.86 1.02 1.14 1.20 1.31 1.54 1.76 1.73 1.83 1.68 1.54 1.63 1.54 1.40 1.20 1.21 1.41 1.51 1.52 1.50 1.54 1.55 1.77 1.64 1.63 1.71 1.74
0.05 0.05 0.06 0.10 0.16 0.45 0.85 1.24 1.04 0.62 0.56 0.44 0.30 0.24 0.28 0.35 0.46 0.41 0.40 0.44 0.47 0.53 0.61 0.78 1.05 1.12 1.14 1.24 1.47 1.56 1.54 1.54 1.60 1.72 1.65 1.52 1.42 1.30 1.46 1.59 1.65 1.58 1.55 1.63 1.83 1.80 1.83 1.90 1.84
0.06 0.06 0.06 0.08 0.16 0.34 0.72 1.11 1.19 0.92 0.67 0.46 0.35 0.34 0.43 0.41 0.50 0.55 0.42 0.39 0.41 0.41 0.50 0.62 0.79 1.00 1.18 1.18 1.18 1.22 1.45 1.51 1.62 1.65 1.53 1.50 1.46 1.43 1.47 1.45 1.48 1.45 1.44 1.56 1.83 1.85 1.90 2.04 2.01
0.08 0.08 0.09 0.10 0.13 0.22 0.55 0.81 0.73 0.71 0.55 0.43 0.45 0.54 0.44 0.42 0.49 0.53 0.38 0.32 0.36 0.39 0.47 0.60 0.74 1.00 1.18 1.10 1.11 1.22 1.39 1.48 1.53 1.66 1.63 1.53 1.49 1.49 1.41 1.35 1.35 1.33 1.28 1.37 1.57 1.70 1.88 2.01 2.06
0.10 0.10 0.11 0.15 0.16 0.17 0.28 0.50 0.44 0.51 0.50 0.58 0.63 0.59 0.53 0.51 0.51 0.53 0.45 0.47 0.49 0.54 0.57 0.68 0.76 0.90 1.01 1.06 1.14 1.20 1.31 1.38 1.41 1.45 1.52 1.57 1.53 1.56 1.52 1.46 1.40 1.27 1.24 1.36 1.50 1.66 1.82 1.96 2.07